www.pogodaiklimat.ru

Погода и климат >> Архив погоды >> Индия >> New Delhi


АРХИВ ПОГОДЫ в New Delhi

Время (UTC), дата Ветер
(напр.,м/с)
 
Видим.   Явления Облачность Т
(С)
Тd
(С)
f
(%)
Тe
(С)
Тes
(С)
Комфортность P
(гПа)
Po
(гПа)
Тmin
(С)
Tmax
(С)
R
(мм)
R24
(мм)
S
(см)
12 12.12 штиль 0 1000 м дымка 6/3 1200 м
[Sc Ac trans]
+19.0 +14.5 75 +20 +20 по сезону 1015.9 1016.0 +21.6
15 12.12 штиль 0 2000 м дымка {дождь} 9/5 900 м
[Cb calv Ac trans]
+16.4 +16.1 98 +16 +16 по сезону 1017.8 1018.0 1
18 12.12 штиль 0 2000 м дымка 9/4 900 м
[Sc Ac trans]
+15.0 +14.6 97 +15 +15 тепло 1018.7 1019.0 1
21 12.12 штиль 0 2000 м дымка 9/4 900 м
[Sc Ac trans]
+13.8 +13.4 97 +13 +13 тепло 1018.3 1018.0 1
00 13.12 штиль 0 2000 м дымка 9/4 900 м
[Cb calv Ac trans]
+12.2 +11.8 97 +12 +12 тепло 1019.3 1019.0 1
03 13.12 З 1 2000 м дымка 5/3 1050 м
[Sc Ac trans]
+13.0 +11.9 93 +13 +14 по сезону 1021.2 1021.0 +11.2 +21.6 1
06 13.12 З 1 2000 м мгла 5/3 1050 м
[Sc Ac trans]
+18.8 +11.5 63 +21 +26 комфорт 1021.8 1022.0
09 13.12 СЗ 2 2000 м мгла 4/0
[Ac trans]
+20.6 +13.3 63 +24 +28 комфорт 1019.0 1019.0
12 13.12 штиль 0 2000 м дымка 1/0
[Ac trans]
+18.2 +14.4 78 +18 +18 прохладно 1019.1 1019.0 +20.8
18 13.12 З 1 1000 м дымка ясно +12.2 +11.4 95 +12 +12 по сезону 1021.7 1022.0
21 13.12 З 1 1000 м дымка ясно +11.6 +11.2 97 +11 +11 по сезону 1022.2 1022.0
00 14.12 З 1 500 м местами туман поземный ясно +10.4 +10.0 97 +10 +10 по сезону 1022.0 1022.0
03 14.12 З 2 1000 м дымка ясно +11.4 +11.4 100 +10 +12 холодно 1023.7 1024.0 +8.0 +20.8
06 14.12 З 2 2000 м мгла ясно +19.0 +11.8 63 +21 +29 комфорт 1023.5 1024.0
09 14.12 СЗ 2 2000 м мгла 1/1 1200 м
[Sc]
+21.4 +12.2 56 +24 +28 комфорт 1020.7 1021.0
12 14.12 З 2 2000 м мгла 3/0
[Ac trans]
+18.4 +11.9 66 +19 +19 по сезону 1020.9 1021.0 +21.7
15 14.12 штиль 0 2000 м дымка ясно +12.8 +11.3 91 +12 +12 прохладно 1023.4 1023.0
18 14.12 штиль 0 1000 м дымка ясно +11.0 +10.6 97 +10 +10 по сезону 1023.1 1023.0
21 14.12 штиль 0 1000 м дымка ясно +10.6 +10.2 97 +10 +10 по сезону 1022.1 1022.0
00 15.12 З 1 500 м местами туман поземный ясно +9.6 +9.6 100 +9 +9 по сезону 1021.8 1022.0
03 15.12 З 1 500 м местами туман поземный ясно +9.6 +9.2 97 +9 +10 холодно 1023.3 1023.0 +8.2 +21.7
06 15.12 З 2 1000 м дым ясно +17.4 +12.0 71 +18 +27 по сезону 1023.4 1023.0
09 15.12 С 3 2000 м мгла ясно +22.0 +13.8 60 +25 +30 комфорт 1020.0 1020.0
12 15.12 З 2 2000 м мгла ясно +19.4 +12.7 65 +21 +21 комфорт 1020.3 1020.0 +22.7
15 15.12 З 1 2000 м дымка ясно +13.4 +11.5 88 +14 +14 по сезону 1022.3 1022.0
18 15.12 З 1 2000 м дымка ясно +12.2 +11.1 93 +13 +13 по сезону 1022.7 1023.0
21 15.12 штиль 0 1000 м дымка ясно +11.0 +10.2 95 +10 +10 по сезону 1022.5 1023.0
00 16.12 З 1 1000 м дымка ясно +9.4 +8.6 95 +9 +9 по сезону 1022.6 1023.0
03 16.12 З 1 1000 м дымка ясно +9.4 +8.6 95 +9 +10 холодно 1024.1 1024.0 +7.2 +22.7
06 16.12 З 2 2000 м дым ясно +18.4 +11.1 62 +20 +28 по сезону 1024.1 1024.0
09 16.12 З 2 2000 м дым ясно +23.0 +6.2 34 +24 +29 комфорт 1020.4 1020.0
12 16.12 штиль 0 1000 м дым ясно +20.0 +13.0 64 +22 +22 комфорт 1019.9 1020.0 +23.5
15 16.12 штиль 0 2000 м дымка ясно +12.2 +11.1 93 +12 +12 прохладно 1022.3 1022.0
18 16.12 штиль 0 2000 м дымка ясно +10.4 +9.6 95 +10 +10 по сезону 1022.5 1023.0
21 16.12 штиль 0 1000 м дымка ясно +8.8 +8.4 97 +8 +8 прохладно 1022.0 1022.0
00 17.12 штиль 0 1000 м дымка ясно +7.2 +6.8 97 +6 +6 прохладно 1021.4 1021.0
03 17.12 З 1 500 м дымка 5/3 1050 м
[Sc Ac trans]
+8.4 +7.6 95 +7 +8 очень
холодно
1022.9 1023.0 +6.2 +23.5
06 17.12 З 1 500 м дым 5/3 1050 м
[Sc Ac trans]
+17.0 +10.2 64 +18 +23 по сезону 1022.2 1022.0
09 17.12 З 2 2000 м мгла 3/0
[Ac trans]
+22.0 +10.8 49 +24 +29 комфорт 1018.3 1018.0
12 17.12 штиль 0 2000 м мгла 6/4 1200 м
[Sc Ac trans]
+18.4 +11.1 62 +19 +19 по сезону 1018.4 1018.0 +22.1
15 17.12 З 1 2000 м дымка 5/3 1200 м
[Sc Ac trans]
+12.2 +10.3 88 +12 +12 прохладно 1020.5 1021.0
18 17.12 штиль 0 1000 м дымка 3/0
[Ac trans]
+9.4 +9.0 97 +8 +8 прохладно 1021.4 1021.0
21 17.12 З 1 1000 м дымка 3/0
[Ac trans]
+8.8 +8.4 97 +8 +8 прохладно 1018.8 1019.0
00 18.12 З 2 1000 м дымка 3/0
[Ac trans]
+6.6 +6.2 97 +5 +5 прохладно 1020.2 1020.0
03 18.12 З 1 1000 м дымка ясно +8.8 +8.0 95 +8 +9 холодно 1021.2 1021.0 +5.1 +22.1
06 18.12 З 3 1000 м дым ясно +18.0 +9.2 56 +18 +25 по сезону 1020.0 1020.0
09 18.12 З 3 2000 м мгла ясно +21.4 +9.0 45 +23 +28 комфорт 1017.6 1018.0
12 18.12 З 2 2000 м мгла ясно +18.8 +10.3 58 +20 +20 по сезону 1016.7 1017.0 +22.3
15 18.12 З 1 2000 м дымка ясно +11.8 +10.3 91 +12 +12 прохладно 1019.2 1019.0
18 18.12 З 1 1000 м дымка ясно +9.6 +8.8 95 +9 +9 прохладно 1018.8 1019.0
21 18.12 штиль 0 1000 м дымка ясно +7.6 +7.2 97 +7 +7 прохладно 1017.4 1017.0
00 19.12 штиль 0 1000 м дымка ясно +6.4 +6.0 97 +5 +5 прохладно 1018.1 1018.0
03 19.12 ЮЗ 2 1000 м дымка ясно +8.4 +8.0 97 +6 +8 очень
холодно
1019.7 1020.0 +5.2 +22.3
06 19.12 З 2 2000 м мгла ясно +18.6 +10.4 59 +20 +27 тепло 1019.3 1019.0

 

Местоположение метеостанции New Delhi (Delhi, Индия): широта 28.58 долгота 77.20 высота над уровнем моря 216 м.

В архиве по умолчанию представлена погода в New Delhi за последнюю неделю. Архивные данные за месяц целиком и за предыдущие месяцы, начиная с января 2011 года, Вы можете получить, выбрав интересующий диапазон дат из раскрывающегося списка и нажав кнопку "Ввод!".


*Определитесь, кто Вы:
робот инопланетянин человек

Внимание! Время в таблицах - всемирное. Для получения местного времени необходимо прибавить поправку, которая в New Delhi равна 5.5 ч.

Смотрите также архив погоды в соседних городах и на ближайших метеорологических станциях:

Погода в New Delhi Airport (Delhi, Индия) (8 км)
Погода в Ridge (Delhi, Индия) (10 км)
Погода в New Delhi Aya Nagar (Delhi, Индия) (13 км)
Погода в Rohtak (Haryana, Индия) (67 км)
Погода в Meerut (Uttar Pradesh, Индия) (70 км)
Погода в Karnal (Haryana, Индия) (126 км)
Погода в Hissar (Haryana, Индия) (157 км)
Погода в Pilani (Rajasthan, Индия) (161 км)
Погода в Najibabad (Uttar Pradesh, Индия) (163 км)
Погода в Agra (Uttar Pradesh, Индия) (176 км)

Пояснения к столбцам:

Ветер - указаны скорость ветра в м/с - средняя за 10 мин, порывы в срок и между сроками (в фигурных скобках) и направление, откуда дует ветер: С - северный, СВ - северо-восточный, В - восточный, ЮВ - юго-восточный, Ю - южный, ЮЗ - юго-западный, З - западный, СЗ - северо-западный.
Видимость - горизонтальная дальность видимости в метрах или километрах. При видимости от 1 до 10 км при отсутствии осадков обычно наблюдается дымка, при ухудшении видимости до 1 км и менее - туман. В сухую погоду видимость может ухудшаться дымом, пылью или мглою.
Явления - указаны атмосферные явления, наблюдавшиеся в срок или в последний час перед сроком; фигурными скобками обозначены явления, наблюдавшиеся между сроками (за 1-3 часа до срока); квадратными скобками обозначены град или гололедные отложения с указанием их диаметра в мм.
Облачность - указаны через наклонную черту общая и нижняя облачность в баллах и высота нижней границы облаков в метрах; квадратными скобками обозначены формы облаков: Ci - перистые, Cs - перисто-слоистые, Cc - перисто-кучевые, Ac - высококучевые, As - высокослоистые, Sc - слоисто-кучевые, Ns - слоисто-дождевые, Cu - кучевые, Cb - кучево-дождевые. Подробнее классификацию облаков см. в Атласе облаков (PDF).
T - Температура воздуха - температура, измеренная на высоте 2 м над землей.
Td - Температура точки росы - температура, при понижении до которой содержащийся в воздухе водяной пар достигнет насыщения.
f - Относительная влажность воздуха - влажноcть воздуха, измеренная на высоте 2 м над землей.
Te - Эффективная температура - температура, которую ощущает одетый по сезону человек в тени. Характеристика душности погоды. При расчете учитывается влияние влажности воздуха и скорости ветра на теплоощущения человека.
Tes - Эффективная температура на солнце - температура, которую ощущает человек, с поправкой на солнечный нагрев. Характеристика знойности погоды. Зависит от высоты солнца над горизонтом, облачности и скорости ветра. Ночью, в пасмурную погоду, а также при ветре 12 м/с и более поправка равна нулю.
P - Атмосферное давление - приведенное к уровню моря атмосферное давление.
Po - Атмосферное давление - измеренное на уровне метеостанции атмосферное давление.
Tmin - Минимальная температура - минимум температуры воздуха на высоте 2 м над землей.
Tmax - Максимальная температура - максимум температуры воздуха на высоте 2 м над землей.
R - Количество осадков - Количество выпавших осадков за период времени, мм. При наведении курсора мыши на число - период времени, за который выпало указанное количество осадков.
R24 - Количество осадков - Количество выпавших осадков за 24 часа, мм.
S - Снежный покров - Высота снежного покрова, см. При наведении курсора мыши на число - состояние снежного покрова и степень покрытия местности в баллах.